FW2167 Weather Reports


time (UTC)temp
C
wind
direction
speed
KPH
gust
KPH
rain 1hr
cm
rain 24hr
cm
rain mn
cm
humidity
%
barometer
mb
20260506034205 20 41 6.4 14.5 0.00 0.03 0.03 71 1028.1
20260506033705 21 38 8.0 19.3 0.00 0.03 0.03 69 1028.2
20260506033204 20 57 6.4 20.9 0.00 0.03 0.03 70 1028.0
20260506032704 20 46 8.0 14.5 0.00 0.03 0.03 71 1028.2
20260506032204 20 59 4.8 12.9 0.00 0.03 0.03 71 1028.0
20260506031205 20 45 8.0 16.1 0.00 0.03 0.03 72 1028.1
20260506030705 20 40 6.4 11.3 0.00 0.03 0.03 76 1028.1
20260506030204 20 46 3.2 9.7 0.00 0.03 0.03 77 1028.0
20260506025704 20 52 3.2 8.0 0.00 0.03 0.03 77 1028.0
20260506024705 20 56 3.2 9.7 0.00 0.03 0.03 78 1028.1
20260506024204 20 110 6.4 11.3 0.00 0.03 0.03 78 1028.1
20260506023704 20 94 3.2 8.0 0.00 0.03 0.03 78 1028.0
20260506023204 20 2 1.6 8.0 0.00 0.03 0.03 78 1028.0
20260506022705 20 112 6.4 9.7 0.00 0.03 0.03 77 1028.1
20260506022204 20 86 4.8 11.3 0.00 0.03 0.03 77 1028.1
20260506021205 20 65 6.4 11.3 0.00 0.03 0.03 75 1028.1
20260506020205 20 39 4.8 11.3 0.00 0.03 0.03 73 1028.3
20260506015704 20 20 6.4 14.5 0.00 0.03 0.03 73 1028.2
20260506015205 20 41 8.0 12.9 0.00 0.03 0.03 73 1028.4
20260506014704 20 22 9.7 16.1 0.00 0.03 0.03 74 1028.4
20260506014204 20 43 9.7 20.9 0.00 0.03 0.03 73 1028.4
20260506013704 20 20 8.0 19.3 0.00 0.03 0.03 74 1028.5
20260506012704 20 42 8.0 16.1 0.00 0.03 0.03 74 1028.3
20260506012205 20 16 11.3 19.3 0.00 0.03 0.03 74 1028.4
20260506011704 20 44 4.8 12.9 0.00 0.03 0.03 74 1028.6
20260506011204 20 50 8.0 12.9 0.00 0.03 0.03 79 1028.6
20260506010704 19 39 4.8 11.3 0.00 0.03 0.03 79 1028.7
20260506010204 19 54 4.8 12.9 0.00 0.03 0.03 83 1028.8
20260506005704 19 46 4.8 14.5 0.00 0.03 0.03 84 1028.7
20260506005204 19 47 11.3 24.1 0.00 0.03 0.03 80 1028.9
20260506004704 20 48 11.3 19.3 0.00 0.03 0.03 77 1028.7
20260506004204 20 36 9.7 14.5 0.00 0.03 0.03 75 1028.8
20260506003704 20 18 6.4 11.3 0.00 0.03 0.03 73 1028.7
20260506003204 21 36 4.8 12.9 0.00 0.03 0.03 73 1028.9
20260506002704 21 6 8.0 19.3 0.00 0.03 0.03 72 1028.9
20260506002205 21 42 8.0 12.9 0.00 0.03 0.03 73 1028.9
20260506001704 20 27 6.4 16.1 0.00 0.03 0.03 73 1029.1
20260506000205 20 41 8.0 14.5 0.00 0.03 0.03 74 1029.5
20260505235704 20 57 6.4 16.1 0.00 0.03 0.03 75 1029.4
20260505235204 20 81 3.2 9.7 0.00 0.03 0.03 78 1029.5
20260505234204 19 44 4.8 14.5 0.00 0.03 0.03 77 1029.7
20260505233704 20 37 8.0 11.3 0.00 0.03 0.03 75 1030.0
20260505233204 20 11 8.0 14.5 0.00 0.03 0.03 73 1030.0
20260505232704 20 339 4.8 12.9 0.00 0.03 0.03 73 1029.8
20260505232204 20 317 6.4 11.3 0.00 0.03 0.03 75 1030.0
20260505231704 20 348 4.8 8.0 0.00 0.03 0.03 75 1030.2
20260505231204 20 62 4.8 9.7 0.00 0.03 0.03 77 1030.2
20260505230704 19 3 3.2 8.0 0.00 0.03 0.03 79 1030.2
20260505230204 20 26 3.2 9.7 0.00 0.03 0.03 78 1030.3
20260505225704 19 70 4.8 8.0 0.00 0.03 0.03 83 1030.2
20260505225204 18 280 0.0 3.2 0.00 0.03 0.03 83 1030.2
20260505224705 18 179 1.6 8.0 0.00 0.03 0.03 84 1030.2
20260505224204 18 121 1.6 4.8 0.00 0.03 0.03 82 1030.3
20260505223203 18 118 3.2 11.3 0.00 0.03 0.03 86 1030.4
20260505222704 18 96 4.8 12.9 0.00 0.03 0.03 85 1030.4
20260505222204 18 92 3.2 9.7 0.00 0.03 0.03 84 1030.3
20260505221704 18 130 4.8 9.7 0.00 0.03 0.03 85 1030.5
20260505221204 17 104 3.2 8.0 0.00 0.03 0.03 87 1030.6
20260505220704 17 142 1.6 4.8 0.00 0.00 0.00 90 1030.5
20260505220203 17 57 3.2 8.0 0.00 0.00 0.00 89 1030.5
20260505215705 17 146 3.2 8.0 0.00 0.00 0.00 89 1030.5
20260505215204 17 121 3.2 8.0 0.00 0.00 0.00 90 1030.5
20260505214704 17 121 8.0 9.7 0.00 0.00 0.00 90 1030.5
20260505213704 16 112 4.8 11.3 0.00 0.00 0.00 91 1030.4
20260505212704 16 115 4.8 9.7 0.00 0.00 0.00 91 1030.5
20260505212205 16 60 3.2 8.0 0.00 0.00 0.00 92 1030.6
20260505211704 16 37 1.6 4.8 0.00 0.00 0.00 93 1030.8
20260505211204 16 110 3.2 8.0 0.00 0.00 0.00 94 1030.8
20260505210704 16 55 1.6 4.8 0.00 0.00 0.00 95 1031.0
20260505210204 15 103 0.0 4.8 0.00 0.00 0.00 95 1030.7
20260505205704 15 30 0.0 4.8 0.00 0.00 0.00 95 1030.5
20260505205204 15 148 4.8 8.0 0.00 0.00 0.00 96 1030.6
20260505204705 15 62 1.6 8.0 0.00 0.00 0.00 96 1030.7
20260505204204 15 139 3.2 4.8 0.00 0.00 0.00 96 1030.8
20260505203704 14 130 3.2 9.7 0.00 0.00 0.00 96 1030.6
20260505202704 14 137 3.2 9.7 0.00 0.00 0.00 96 1030.6
20260505202204 14 140 3.2 8.0 0.00 0.00 0.00 96 1030.3
20260505201705 14 123 3.2 4.8 0.00 0.00 0.00 96 1030.5
20260505201204 14 130 1.6 8.0 0.00 0.00 0.00 96 1030.3
20260505195704 13 131 1.6 4.8 0.00 0.00 0.00 96 1030.3
20260505195204 13 343 0.0 3.2 0.00 0.00 0.00 96 1030.3
20260505194704 13 122 1.6 8.0 0.00 0.00 0.00 96 1030.4
20260505193704 13 118 3.2 8.0 0.00 0.00 0.00 96 1030.1
20260505193204 13 134 4.8 8.0 0.00 0.00 0.00 96 1030.1
20260505192704 13 132 3.2 8.0 0.00 0.00 0.00 96 1030.1
20260505192204 13 127 1.6 4.8 0.00 0.00 0.00 96 1030.0
20260505191704 13 133 3.2 8.0 0.00 0.00 0.00 96 1030.1
20260505191205 13 123 4.8 9.7 0.00 0.00 0.00 96 1030.0
20260505190704 13 137 4.8 11.3 0.00 0.00 0.00 96 1030.0
20260505185704 13 64 0.0 4.8 0.00 0.00 0.00 96 1030.0
20260505185204 13 182 1.6 8.0 0.00 0.00 0.00 96 1029.8
20260505184704 13 150 3.2 9.7 0.00 0.00 0.00 96 1029.8
20260505183704 13 148 3.2 4.8 0.00 0.00 0.00 95 1030.0
20260505182704 13 126 1.6 4.8 0.00 0.00 0.00 95 1030.0
20260505181704 13 115 4.8 8.0 0.00 0.00 0.00 95 1030.1
20260505181204 13 111 3.2 8.0 0.00 0.00 0.00 95 1029.7
20260505180704 13 87 1.6 8.0 0.00 0.00 0.00 95 1029.6
20260505180204 13 116 1.6 8.0 0.00 0.00 0.00 95 1029.8
20260505175704 13 116 3.2 8.0 0.00 0.00 0.00 95 1029.7
20260505175204 13 121 4.8 8.0 0.00 0.00 0.00 95 1029.9
20260505174704 13 130 1.6 4.8 0.00 0.00 0.00 95 1029.8
20260505174204 13 138 0.0 3.2 0.00 0.00 0.00 95 1029.8
20260505173704 12 78 1.6 3.2 0.00 0.00 0.00 95 1030.1
20260505173204 12 25 0.0 0.0 0.00 0.00 0.00 95 1030.2
20260505172704 12 356 0.0 0.0 0.00 0.00 0.00 95 1029.9
20260505172204 12 356 0.0 0.0 0.00 0.00 0.00 95 1029.9
20260505171204 12 329 0.0 1.6 0.00 0.00 0.00 95 1030.1
20260505170704 12 139 0.0 0.0 0.00 0.00 0.00 95 1029.9
20260505165704 12 206 0.0 1.6 0.00 0.00 0.00 95 1029.8
20260505165204 12 189 0.0 1.6 0.00 0.00 0.00 95 1030.0
20260505164704 12 285 0.0 1.6 0.00 0.00 0.00 95 1029.8
20260505163704 12 110 0.0 1.6 0.00 0.00 0.00 95 1029.9
20260505163204 12 64 1.6 3.2 0.00 0.00 0.00 95 1029.9
20260505162704 12 129 3.2 3.2 0.00 0.00 0.00 95 1029.8
20260505162204 12 66 0.0 3.2 0.00 0.00 0.00 95 1030.0
20260505161704 12 302 1.6 3.2 0.00 0.00 0.00 95 1029.9
20260505161203 12 0 0.0 1.6 0.00 0.00 0.00 95 1029.8
20260505160707 12 260 1.6 1.6 0.00 0.00 0.00 95 1029.8
20260505160204 12 259 0.0 0.0 0.00 0.00 0.00 95 1029.8
20260505153203 11 269 1.6 4.8 0.00 0.00 0.00 94 1030.1
20260505152704 11 288 1.6 3.2 0.00 0.00 0.00 94 1029.9
20260505151704 12 239 3.2 3.2 0.00 0.00 0.00 93 1030.0
20260505151204 12 18 0.0 1.6 0.00 0.00 0.00 94 1030.3
20260505150705 12 77 1.6 3.2 0.00 0.00 0.00 93 1030.3
20260505150204 12 89 1.6 1.6 0.00 0.00 0.00 93 1030.2
20260505140204 13 20 1.6 1.6 0.00 0.00 0.00 93 1030.6
20260505130204 12 265 3.2 3.2 0.00 0.00 0.00 91 1031.3
20260505124204 13 149 3.2 3.2 0.00 0.00 0.00 90 1031.4
20260505123204 13 198 0.0 1.6 0.00 0.00 0.00 91 1031.3
20260505122205 13 268 1.6 3.2 0.00 0.00 0.00 92 1031.5
20260505121703 13 251 1.6 4.8 0.00 0.00 0.00 91 1031.3
20260505121204 13 237 3.2 3.2 0.00 0.00 0.00 90 1031.5
20260505120703 13 236 1.6 3.2 0.00 0.00 0.00 90 1031.2
20260505115704 13 308 0.0 0.0 0.00 0.00 0.00 90 1031.2
20260505115204 13 309 0.0 1.6 0.00 0.00 0.00 90 1031.3
20260505114704 13 318 1.6 3.2 0.00 0.00 0.00 89 1031.5
20260505114204 13 273 3.2 4.8 0.00 0.00 0.00 89 1031.4
20260505113704 14 274 3.2 3.2 0.00 0.00 0.00 88 1031.4
20260505113205 14 286 3.2 4.8 0.00 0.00 0.00 88 1031.6
20260505112704 14 292 3.2 3.2 0.00 0.00 0.00 88 1031.5
20260505112204 14 120 0.0 3.2 0.00 0.00 0.00 87 1031.5
20260505111704 14 125 1.6 3.2 0.00 0.00 0.00 87 1031.5
20260505110204 14 358 0.0 1.6 0.00 0.00 0.00 87 1031.4
20260505102205 15 141 0.0 0.0 0.00 0.00 0.00 86 1031.8
20260505101205 15 132 0.0 0.0 0.00 0.00 0.00 86 1031.8
20260505100205 14 159 3.2 3.2 0.00 0.00 0.00 88 1031.7
20260505095705 15 235 1.6 3.2 0.00 0.00 0.00 87 1032.0
20260505095204 15 259 3.2 3.2 0.00 0.00 0.00 86 1032.0
20260505094704 15 321 0.0 0.0 0.00 0.00 0.00 86 1031.8
20260505093704 15 131 0.0 1.6 0.00 0.00 0.00 87 1031.7
20260505093204 15 301 0.0 0.0 0.00 0.00 0.00 87 1031.8
20260505092705 15 301 1.6 3.2 0.00 0.00 0.00 86 1032.0
20260505092205 15 285 3.2 3.2 0.00 0.00 0.00 86 1032.0
20260505091705 15 125 0.0 0.0 0.00 0.00 0.00 86 1031.9
20260505091205 15 139 1.6 3.2 0.00 0.00 0.00 86 1032.0
20260505090705 15 129 1.6 1.6 0.00 0.00 0.00 85 1031.9
20260505090204 15 335 0.0 1.6 0.00 0.00 0.00 84 1032.1
20260505085705 15 333 1.6 3.2 0.00 0.00 0.00 83 1031.7
20260505085205 15 108 0.0 1.6 0.00 0.00 0.00 83 1031.9
20260505084705 15 41 0.0 3.2 0.00 0.00 0.00 83 1031.8
20260505084204 15 73 1.6 3.2 0.00 0.00 0.00 83 1031.7
20260505083704 15 137 0.0 0.0 0.00 0.00 0.00 83 1031.8
20260505083205 15 149 0.0 0.0 0.00 0.00 0.00 84 1031.8
20260505082705 15 326 0.0 0.0 0.00 0.00 0.00 84 1031.7
20260505082204 15 328 0.0 1.6 0.00 0.00 0.00 84 1031.9
20260505081704 15 36 0.0 1.6 0.00 0.00 0.00 85 1031.8
20260505081206 15 158 1.6 3.2 0.00 0.00 0.00 85 1031.8
20260505080705 15 150 1.6 3.2 0.00 0.00 0.00 86 1031.7
20260505080204 15 216 3.2 3.2 0.00 0.00 0.00 85 1031.8
20260505075704 15 187 1.6 4.8 0.00 0.00 0.00 84 1031.8
20260505075205 15 242 3.2 4.8 0.00 0.00 0.00 85 1031.8
20260505074204 15 216 3.2 3.2 0.00 0.00 0.00 83 1032.0
20260505073704 15 222 1.6 1.6 0.00 0.00 0.00 82 1031.8
20260505073204 15 81 0.0 0.0 0.00 0.00 0.00 83 1031.9
20260505072704 15 32 0.0 0.0 0.00 0.00 0.00 83 1031.7
20260505072205 15 32 0.0 1.6 0.00 0.00 0.00 83 1031.6
20260505071705 15 90 1.6 1.6 0.00 0.00 0.00 84 1031.6
20260505071204 15 80 0.0 3.2 0.00 0.00 0.00 85 1031.6
20260505070705 15 130 3.2 4.8 0.00 0.00 0.00 86 1031.5
20260505070205 15 142 3.2 4.8 0.00 0.00 0.00 86 1031.6
20260505065205 15 63 3.2 3.2 0.00 0.00 0.00 85 1031.7
20260505064704 15 73 1.6 3.2 0.00 0.00 0.00 85 1031.6
20260505064204 15 111 0.0 1.6 0.00 0.00 0.00 84 1031.4
20260505063705 15 114 1.6 3.2 0.00 0.00 0.00 84 1031.6
20260505062205 14 285 1.6 3.2 0.00 0.00 0.00 85 1031.5
20260505061705 14 274 3.2 4.8 0.00 0.00 0.00 84 1031.5
20260505061204 15 258 3.2 4.8 0.00 0.00 0.00 83 1031.4
20260505060705 15 267 3.2 4.8 0.00 0.00 0.00 80 1031.6
20260505060205 16 301 0.0 3.2 0.00 0.00 0.00 78 1031.3
20260505055205 16 25 1.6 3.2 0.00 0.00 0.00 78 1031.3
20260505054204 16 7 3.2 3.2 0.00 0.00 0.00 77 1031.2
20260505053705 16 352 3.2 4.8 0.00 0.00 0.00 76 1031.3
20260505053204 17 5 3.2 4.8 0.00 0.00 0.00 76 1031.2
20260505052204 17 14 3.2 9.7 0.00 0.00 0.00 74 1031.3
20260505051704 17 33 6.4 9.7 0.00 0.00 0.00 73 1031.3
20260505051205 17 10 4.8 9.7 0.00 0.00 0.00 72 1031.4
20260505050704 17 11 3.2 4.8 0.00 0.00 0.00 72 1031.2
20260505050204 17 9 3.2 4.8 0.00 0.00 0.00 72 1031.5
20260505041204 18 77 3.2 9.7 0.00 0.00 0.00 68 1031.3
20260505040704 18 11 4.8 8.0 0.00 0.00 0.00 68 1031.5
20260505040205 18 14 4.8 8.0 0.00 0.00 0.00 69 1031.6
20260505035704 18 16 4.8 9.7 0.00 0.00 0.00 69 1031.6
20260505035205 18 23 4.8 9.7 0.00 0.00 0.00 69 1031.6
20260505034704 19 0 3.2 8.0 0.00 0.00 0.00 68 1031.5